Wetterdaten: Freitag, 11.03.2016
Datum Zeit Auen-Temp. Temp gefhlt Luftfeuchte Luftdruck Regen Wind Richtung Richtung Sonnenschein Taupunkt Windben
11.03.2016 00:00 -0,4 C -0,7 C 84 % 1017,1 hPa 0,0 mm 0,3 km/h (0 Bft) O-SO 112 0 min -2,8 C 0,0 km/h (0 Bft)
11.03.2016 00:05 -0,5 C -0,7 C 84 % 1017,1 hPa 0,0 mm 0,0 km/h (0 Bft) O-NO 67 0 min -2,9 C 0,0 km/h (0 Bft)
11.03.2016 00:10 -0,6 C -0,8 C 84 % 1017,1 hPa 0,0 mm 0,0 km/h (0 Bft) S-SO 157 0 min -3,0 C 0,0 km/h (0 Bft)
11.03.2016 00:15 -0,7 C -0,9 C 84 % 1017,1 hPa 0,0 mm 0,0 km/h (0 Bft) O-NO 67 0 min -3,1 C 0,0 km/h (0 Bft)
11.03.2016 00:20 -0,5 C -0,8 C 84 % 1017,1 hPa 0,0 mm 0,0 km/h (0 Bft) O-NO 67 0 min -2,9 C 0,0 km/h (0 Bft)
11.03.2016 00:25 -0,7 C -1,0 C 84 % 1017,1 hPa 0,0 mm 0,0 km/h (0 Bft) NO 45 0 min -3,1 C 0,0 km/h (0 Bft)
11.03.2016 00:30 -0,7 C -1,0 C 84 % 1017,2 hPa 0,0 mm 0,0 km/h (0 Bft) S-SO 157 0 min -3,1 C 0,0 km/h (0 Bft)
11.03.2016 00:35 -0,7 C -1,0 C 84 % 1017,2 hPa 0,0 mm 0,0 km/h (0 Bft) S 180 0 min -3,1 C 0,0 km/h (0 Bft)
11.03.2016 00:40 -0,7 C -1,0 C 84 % 1017,2 hPa 0,0 mm 0,0 km/h (0 Bft) S-SO 157 0 min -3,1 C 0,0 km/h (0 Bft)
11.03.2016 00:45 -0,5 C -0,9 C 84 % 1017,2 hPa 0,0 mm 0,0 km/h (0 Bft) O-NO 67 0 min -2,9 C 0,0 km/h (0 Bft)
11.03.2016 00:50 -0,8 C -1,2 C 84 % 1017,4 hPa 0,0 mm 0,0 km/h (0 Bft) O-NO 67 0 min -3,2 C 0,0 km/h (0 Bft)
11.03.2016 00:55 -0,7 C -1,1 C 84 % 1017,4 hPa 0,0 mm 0,0 km/h (0 Bft) O-NO 67 0 min -3,1 C 0,0 km/h (0 Bft)
11.03.2016 01:00 -0,9 C -1,3 C 84 % 1017,4 hPa 0,0 mm 0,0 km/h (0 Bft) O-NO 67 0 min -3,3 C 0,0 km/h (0 Bft)
11.03.2016 01:05 -0,8 C -1,2 C 84 % 1017,4 hPa 0,0 mm 0,0 km/h (0 Bft) S 180 0 min -3,2 C 0,0 km/h (0 Bft)
11.03.2016 01:10 -0,9 C -1,3 C 84 % 1017,5 hPa 0,0 mm 0,0 km/h (0 Bft) NO 45 0 min -3,3 C 0,0 km/h (0 Bft)
11.03.2016 01:15 -1,0 C -1,3 C 84 % 1017,5 hPa 0,0 mm 0,0 km/h (0 Bft) SO 135 0 min -3,4 C 0,0 km/h (0 Bft)
11.03.2016 01:20 -0,8 C -1,1 C 84 % 1017,5 hPa 0,0 mm 0,0 km/h (0 Bft) SO 135 0 min -3,2 C 0,0 km/h (0 Bft)
11.03.2016 01:22 -0,8 C -1,1 C 84 % 1017,5 hPa 0,0 mm 0,0 km/h (0 Bft) SO 135 0 min -3,2 C 0,0 km/h (0 Bft)
11.03.2016 01:25 -0,9 C -1,2 C 84 % 1017,5 hPa 0,0 mm 0,0 km/h (0 Bft) O-SO 112 0 min -3,3 C 0,0 km/h (0 Bft)
11.03.2016 01:30 -0,8 C -1,1 C 84 % 1017,6 hPa 0,0 mm 0,0 km/h (0 Bft) S-SW 202 0 min -3,2 C 0,0 km/h (0 Bft)
11.03.2016 01:35 -0,6 C -0,9 C 85 % 1017,6 hPa 0,0 mm 0,0 km/h (0 Bft) S-SW 202 0 min -2,8 C 0,0 km/h (0 Bft)
11.03.2016 01:40 -0,4 C -0,7 C 85 % 1017,6 hPa 0,0 mm 0,0 km/h (0 Bft) O-SO 112 0 min -2,6 C 0,0 km/h (0 Bft)
11.03.2016 01:45 -0,2 C -0,5 C 86 % 1017,6 hPa 0,0 mm 0,9 km/h (0 Bft) O-NO 67 0 min -2,3 C 4,8 km/h (1 Bft)
11.03.2016 01:50 0,0 C -0,2 C 86 % 1017,6 hPa 0,0 mm 1,8 km/h (1 Bft) O-NO 67 0 min -2,1 C 6,9 km/h (2 Bft)
11.03.2016 01:55 0,0 C -0,1 C 87 % 1017,6 hPa 0,0 mm 3,3 km/h (1 Bft) O-SO 112 0 min -1,9 C 0,0 km/h (0 Bft)
11.03.2016 02:00 -0,1 C -0,3 C 87 % 1017,6 hPa 0,0 mm 2,7 km/h (1 Bft) O-NO 67 0 min -2,0 C 6,9 km/h (2 Bft)
11.03.2016 02:05 -0,2 C -0,4 C 86 % 1017,6 hPa 0,0 mm 0,0 km/h (0 Bft) O-NO 67 0 min -2,3 C 0,0 km/h (0 Bft)
11.03.2016 02:10 -0,3 C -0,4 C 86 % 1017,6 hPa 0,0 mm 0,9 km/h (0 Bft) O-NO 67 0 min -2,3 C 0,0 km/h (0 Bft)
11.03.2016 02:15 -0,3 C -0,5 C 86 % 1017,6 hPa 0,0 mm 0,9 km/h (0 Bft) SO 135 0 min -2,3 C 0,0 km/h (0 Bft)
11.03.2016 02:20 -0,3 C -0,5 C 86 % 1017,6 hPa 0,0 mm 0,0 km/h (0 Bft) NO 45 0 min -2,3 C 0,0 km/h (0 Bft)
11.03.2016 02:25 -0,3 C -0,5 C 86 % 1017,6 hPa 0,0 mm 0,0 km/h (0 Bft) O-NO 67 0 min -2,3 C 0,0 km/h (0 Bft)
11.03.2016 02:30 -0,4 C -0,6 C 86 % 1017,7 hPa 0,0 mm 0,0 km/h (0 Bft) O 90 0 min -2,4 C 0,0 km/h (0 Bft)
11.03.2016 02:35 -0,5 C -0,7 C 86 % 1017,7 hPa 0,0 mm 0,0 km/h (0 Bft) O 90 0 min -2,5 C 0,0 km/h (0 Bft)
11.03.2016 02:40 -0,5 C -0,7 C 86 % 1017,7 hPa 0,0 mm 0,0 km/h (0 Bft) O-SO 112 0 min -2,5 C 0,0 km/h (0 Bft)
11.03.2016 02:45 -0,5 C -0,7 C 86 % 1017,7 hPa 0,0 mm 0,0 km/h (0 Bft) O-NO 67 0 min -2,5 C 0,0 km/h (0 Bft)
11.03.2016 02:50 -0,5 C -0,7 C 86 % 1017,8 hPa 0,0 mm 0,0 km/h (0 Bft) N-NO 22 0 min -2,5 C 0,0 km/h (0 Bft)
11.03.2016 02:55 -0,5 C -0,7 C 86 % 1017,8 hPa 0,0 mm 0,0 km/h (0 Bft) W-NW 292 0 min -2,5 C 0,0 km/h (0 Bft)
11.03.2016 03:00 -0,5 C -0,7 C 86 % 1017,8 hPa 0,0 mm 0,0 km/h (0 Bft) W-NW 292 0 min -2,5 C 0,0 km/h (0 Bft)
11.03.2016 03:05 -0,5 C -0,7 C 86 % 1017,8 hPa 0,0 mm 0,0 km/h (0 Bft) NW 315 0 min -2,5 C 0,0 km/h (0 Bft)
11.03.2016 03:10 -0,4 C -0,7 C 86 % 1017,6 hPa 0,0 mm 0,0 km/h (0 Bft) SO 135 0 min -2,4 C 0,0 km/h (0 Bft)
11.03.2016 03:15 -0,5 C -0,8 C 86 % 1017,6 hPa 0,0 mm 0,0 km/h (0 Bft) O-NO 67 0 min -2,5 C 0,0 km/h (0 Bft)
11.03.2016 03:20 -0,5 C -0,8 C 86 % 1017,6 hPa 0,0 mm 0,0 km/h (0 Bft) O-NO 67 0 min -2,5 C 0,0 km/h (0 Bft)
11.03.2016 03:25 -0,5 C -0,8 C 86 % 1017,6 hPa 0,0 mm 0,0 km/h (0 Bft) O-NO 67 0 min -2,5 C 0,0 km/h (0 Bft)
11.03.2016 03:30 -0,5 C -0,9 C 86 % 1017,7 hPa 0,0 mm 0,0 km/h (0 Bft) O-SO 112 0 min -2,5 C 0,0 km/h (0 Bft)
11.03.2016 03:35 -0,6 C -0,9 C 86 % 1017,7 hPa 0,0 mm 0,0 km/h (0 Bft) SO 135 0 min -2,6 C 0,0 km/h (0 Bft)
11.03.2016 03:40 -0,6 C -1,0 C 87 % 1017,7 hPa 0,0 mm 0,0 km/h (0 Bft) O-SO 112 0 min -2,5 C 0,0 km/h (0 Bft)
11.03.2016 03:45 -0,9 C -1,2 C 86 % 1017,7 hPa 0,0 mm 0,0 km/h (0 Bft) O-NO 67 0 min -2,9 C 0,0 km/h (0 Bft)
11.03.2016 03:50 -0,9 C -1,3 C 86 % 1017,8 hPa 0,0 mm 0,0 km/h (0 Bft) O-NO 67 0 min -2,9 C 0,0 km/h (0 Bft)
11.03.2016 03:55 -0,8 C -1,2 C 87 % 1017,8 hPa 0,0 mm 0,0 km/h (0 Bft) S-SO 157 0 min -2,7 C 0,0 km/h (0 Bft)
11.03.2016 04:00 -0,7 C -1,1 C 87 % 1017,8 hPa 0,0 mm 0,0 km/h (0 Bft) O 90 0 min -2,6 C 0,0 km/h (0 Bft)
11.03.2016 04:05 -1,2 C -1,5 C 87 % 1017,8 hPa 0,0 mm 0,0 km/h (0 Bft) NW 315 0 min -3,1 C 0,0 km/h (0 Bft)
11.03.2016 04:10 -1,4 C -1,7 C 86 % 1017,8 hPa 0,0 mm 0,0 km/h (0 Bft) NO 45 0 min -3,4 C 0,0 km/h (0 Bft)
11.03.2016 04:15 -1,7 C -2,1 C 86 % 1017,8 hPa 0,0 mm 0,0 km/h (0 Bft) O-SO 112 0 min -3,7 C 0,0 km/h (0 Bft)
11.03.2016 04:20 -1,6 C -2,1 C 86 % 1017,8 hPa 0,0 mm 0,0 km/h (0 Bft) S 180 0 min -3,6 C 0,0 km/h (0 Bft)
11.03.2016 04:23 -1,6 C -2,1 C 86 % 1017,8 hPa 0,0 mm 0,0 km/h (0 Bft) S 180 0 min -3,6 C 0,0 km/h (0 Bft)
11.03.2016 04:25 -1,4 C -1,9 C 87 % 1017,8 hPa 0,0 mm 0,0 km/h (0 Bft) NW 315 0 min -3,3 C 0,0 km/h (0 Bft)
11.03.2016 04:30 -1,5 C -2,0 C 87 % 1017,8 hPa 0,0 mm 0,0 km/h (0 Bft) SW 225 0 min -3,4 C 0,0 km/h (0 Bft)
11.03.2016 04:35 -1,3 C -1,9 C 88 % 1017,8 hPa 0,0 mm 0,0 km/h (0 Bft) S-SW 202 0 min -3,0 C 3,0 km/h (1 Bft)
11.03.2016 04:40 -1,3 C -1,8 C 88 % 1017,8 hPa 0,0 mm 0,0 km/h (0 Bft) S-SW 202 0 min -3,0 C 0,0 km/h (0 Bft)
11.03.2016 04:45 -1,4 C -1,8 C 88 % 1017,8 hPa 0,0 mm 0,0 km/h (0 Bft) S-SO 157 0 min -3,1 C 0,0 km/h (0 Bft)
11.03.2016 04:50 -1,4 C -1,8 C 88 % 1017,8 hPa 0,0 mm 0,0 km/h (0 Bft) S 180 0 min -3,1 C 0,0 km/h (0 Bft)
11.03.2016 04:55 -1,3 C -1,7 C 89 % 1017,8 hPa 0,0 mm 0,3 km/h (0 Bft) S 180 0 min -2,9 C 4,2 km/h (1 Bft)
11.03.2016 05:00 -1,4 C -1,7 C 89 % 1017,8 hPa 0,0 mm 0,6 km/h (0 Bft) S-SO 157 0 min -3,0 C 0,0 km/h (0 Bft)
11.03.2016 05:05 -1,4 C -1,8 C 89 % 1017,8 hPa 0,0 mm 1,2 km/h (1 Bft) S 180 0 min -3,0 C 4,8 km/h (1 Bft)
11.03.2016 05:10 -1,5 C -1,8 C 90 % 1017,9 hPa 0,0 mm 0,6 km/h (0 Bft) SO 135 0 min -2,9 C 0,0 km/h (0 Bft)
11.03.2016 05:15 -1,5 C -1,9 C 90 % 1017,9 hPa 0,0 mm 1,8 km/h (1 Bft) S 180 0 min -2,9 C 4,8 km/h (1 Bft)
11.03.2016 05:20 -1,5 C -1,8 C 90 % 1017,9 hPa 0,0 mm 1,5 km/h (1 Bft) SO 135 0 min -2,9 C 0,0 km/h (0 Bft)
11.03.2016 05:25 -1,7 C -2,1 C 90 % 1017,9 hPa 0,0 mm 0,9 km/h (0 Bft) O 90 0 min -3,1 C 0,0 km/h (0 Bft)
11.03.2016 05:30 -1,7 C -2,1 C 90 % 1017,8 hPa 0,0 mm 0,0 km/h (0 Bft) O-NO 67 0 min -3,1 C 0,0 km/h (0 Bft)
11.03.2016 05:35 -2,1 C -2,5 C 90 % 1017,8 hPa 0,0 mm 0,0 km/h (0 Bft) O-SO 112 0 min -3,5 C 0,0 km/h (0 Bft)
11.03.2016 05:40 -2,2 C -2,5 C 89 % 1017,8 hPa 0,0 mm 0,0 km/h (0 Bft) S 180 0 min -3,8 C 0,0 km/h (0 Bft)
11.03.2016 05:45 -2,0 C -2,3 C 90 % 1017,8 hPa 0,0 mm 0,0 km/h (0 Bft) N-NW 337 0 min -3,4 C 3,0 km/h (1 Bft)
11.03.2016 05:50 -2,4 C -2,6 C 89 % 1017,8 hPa 0,0 mm 0,0 km/h (0 Bft) SW 225 0 min -4,0 C 0,0 km/h (0 Bft)
11.03.2016 05:55 -2,4 C -2,7 C 89 % 1017,8 hPa 0,0 mm 0,0 km/h (0 Bft) NW 315 0 min -4,0 C 0,0 km/h (0 Bft)
11.03.2016 06:00 -2,5 C -2,9 C 89 % 1017,8 hPa 0,0 mm 0,0 km/h (0 Bft) O-NO 67 0 min -4,1 C 0,0 km/h (0 Bft)
11.03.2016 06:05 -2,5 C -3,0 C 89 % 1017,8 hPa 0,0 mm 0,0 km/h (0 Bft) O-NO 67 0 min -4,1 C 0,0 km/h (0 Bft)
11.03.2016 06:10 -2,5 C -3,1 C 89 % 1017,8 hPa 0,0 mm 0,0 km/h (0 Bft) SO 135 0 min -4,1 C 0,0 km/h (0 Bft)
11.03.2016 06:15 -2,8 C -3,3 C 89 % 1017,8 hPa 0,0 mm 0,0 km/h (0 Bft) O-NO 67 0 min -4,4 C 0,0 km/h (0 Bft)
11.03.2016 06:20 -2,5 C -3,1 C 89 % 1017,8 hPa 0,0 mm 0,0 km/h (0 Bft) O-SO 112 0 min -4,1 C 0,0 km/h (0 Bft)
11.03.2016 06:25 -3,0 C -3,4 C 89 % 1017,8 hPa 0,0 mm 0,0 km/h (0 Bft) S-SW 202 0 min -4,6 C 0,0 km/h (0 Bft)
11.03.2016 06:30 -2,5 C -3,0 C 89 % 1017,8 hPa 0,0 mm 0,0 km/h (0 Bft) S-SO 157 0 min -4,1 C 3,0 km/h (1 Bft)
11.03.2016 06:35 -3,1 C -3,4 C 89 % 1017,8 hPa 0,0 mm 0,0 km/h (0 Bft) O 90 0 min -4,6 C 0,0 km/h (0 Bft)
11.03.2016 06:40 -2,9 C -3,3 C 89 % 1017,8 hPa 0,0 mm 0,0 km/h (0 Bft) O-NO 67 0 min -4,5 C 0,0 km/h (0 Bft)
11.03.2016 06:45 -3,3 C -3,6 C 89 % 1017,8 hPa 0,0 mm 0,0 km/h (0 Bft) SO 135 0 min -4,8 C 0,0 km/h (0 Bft)
11.03.2016 06:50 -2,8 C -3,2 C 89 % 1017,9 hPa 0,0 mm 0,0 km/h (0 Bft) O-SO 112 0 min -4,4 C 0,0 km/h (0 Bft)
11.03.2016 06:55 -2,7 C -3,0 C 90 % 1017,9 hPa 0,0 mm 0,0 km/h (0 Bft) W 270 0 min -4,1 C 0,0 km/h (0 Bft)
11.03.2016 07:00 -2,7 C -2,9 C 90 % 1017,9 hPa 0,0 mm 0,0 km/h (0 Bft) NO 45 0 min -4,1 C 0,0 km/h (0 Bft)
11.03.2016 07:05 -2,6 C -2,8 C 90 % 1017,9 hPa 0,0 mm 1,2 km/h (1 Bft) O-NO 67 0 min -4,0 C 5,4 km/h (1 Bft)
11.03.2016 07:10 -2,7 C -2,8 C 90 % 1017,9 hPa 0,0 mm 2,1 km/h (1 Bft) O-NO 67 0 min -4,1 C 7,2 km/h (2 Bft)
11.03.2016 07:15 -2,7 C -2,9 C 90 % 1017,9 hPa 0,0 mm 1,5 km/h (1 Bft) O-NO 67 0 min -4,1 C 3,3 km/h (1 Bft)
11.03.2016 07:20 -3,0 C -3,1 C 90 % 1017,9 hPa 0,0 mm 1,5 km/h (1 Bft) NO 45 0 min -4,4 C 7,2 km/h (2 Bft)
11.03.2016 07:24 -2,7 C -2,9 C 90 % 1017,9 hPa 0,0 mm 2,7 km/h (1 Bft) O-NO 67 0 min -4,1 C 7,5 km/h (2 Bft)
11.03.2016 07:30 -2,6 C -2,7 C 90 % 1018,2 hPa 0,0 mm 3,3 km/h (1 Bft) NO 45 0 min -4,0 C 8,0 km/h (2 Bft)
11.03.2016 07:35 -2,4 C -2,6 C 91 % 1018,2 hPa 0,0 mm 3,9 km/h (1 Bft) O-NO 67 0 min -3,7 C 6,3 km/h (2 Bft)
11.03.2016 07:40 -2,2 C -2,4 C 91 % 1018,2 hPa 0,0 mm 3,3 km/h (1 Bft) N-NO 22 0 min -3,5 C 12,5 km/h (3 Bft)
11.03.2016 07:45 -1,9 C -2,0 C 91 % 1018,2 hPa 0,0 mm 0,9 km/h (0 Bft) NO 45 0 min -3,2 C 0,0 km/h (0 Bft)
11.03.2016 07:50 -2,0 C -2,0 C 91 % 1018,5 hPa 0,0 mm 0,6 km/h (0 Bft) O-NO 67 0 min -3,3 C 4,5 km/h (1 Bft)
11.03.2016 07:55 -1,8 C -1,9 C 91 % 1018,5 hPa 0,0 mm 1,5 km/h (1 Bft) O-NO 67 0 min -3,1 C 0,0 km/h (0 Bft)
11.03.2016 08:00 -1,6 C -1,7 C 91 % 1018,5 hPa 0,0 mm 1,5 km/h (1 Bft) O 90 0 min -2,9 C 3,6 km/h (1 Bft)
11.03.2016 08:05 -1,3 C -1,4 C 91 % 1018,5 hPa 0,0 mm 2,1 km/h (1 Bft) O-NO 67 0 min -2,6 C 7,2 km/h (2 Bft)
11.03.2016 08:10 -1,1 C -1,2 C 91 % 1018,7 hPa 0,0 mm 3,6 km/h (1 Bft) N-NO 22 0 min -2,4 C 4,5 km/h (1 Bft)
11.03.2016 08:15 -0,8 C -1,0 C 92 % 1018,7 hPa 0,0 mm 4,5 km/h (1 Bft) O-NO 67 0 min -1,9 C 7,2 km/h (2 Bft)
11.03.2016 08:20 -0,8 C -1,0 C 92 % 1018,7 hPa 0,0 mm 4,8 km/h (1 Bft) N 360 0 min -1,9 C 5,7 km/h (1 Bft)
11.03.2016 08:25 -0,6 C -1,0 C 92 % 1018,7 hPa 0,0 mm 6,3 km/h (2 Bft) NO 45 0 min -1,7 C 6,9 km/h (2 Bft)
11.03.2016 08:30 -0,5 C -0,9 C 92 % 1018,7 hPa 0,0 mm 6,0 km/h (2 Bft) N-NO 22 0 min -1,6 C 4,8 km/h (1 Bft)
11.03.2016 08:35 -0,3 C -0,8 C 92 % 1018,7 hPa 0,0 mm 6,9 km/h (2 Bft) NO 45 0 min -1,4 C 7,7 km/h (2 Bft)
11.03.2016 08:40 -0,1 C -0,7 C 92 % 1018,7 hPa 0,0 mm 7,7 km/h (2 Bft) O-NO 67 0 min -1,2 C 13,4 km/h (3 Bft)
11.03.2016 08:45 0,0 C -0,1 C 92 % 1018,7 hPa 0,0 mm 5,7 km/h (1 Bft) O-NO 67 0 min -1,1 C 10,7 km/h (2 Bft)
11.03.2016 08:50 0,0 C 0,3 C 92 % 1019,0 hPa 0,0 mm 3,9 km/h (1 Bft) N-NO 22 0 min -1,1 C 3,3 km/h (1 Bft)
11.03.2016 08:55 0,0 C 0,7 C 92 % 1019,0 hPa 0,0 mm 4,8 km/h (1 Bft) NO 45 0 min -1,1 C 8,0 km/h (2 Bft)
11.03.2016 09:00 0,0 C 0,7 C 92 % 1019,0 hPa 0,0 mm 5,1 km/h (1 Bft) NO 45 0 min -1,1 C 4,8 km/h (1 Bft)
11.03.2016 09:05 0,0 C 1,4 C 92 % 1019,0 hPa 0,0 mm 3,0 km/h (1 Bft) O-NO 67 0 min -1,1 C 0,0 km/h (0 Bft)
11.03.2016 09:10 0,0 C 1,9 C 91 % 1019,1 hPa 0,0 mm 2,1 km/h (1 Bft) O-NO 67 0 min -1,3 C 5,7 km/h (1 Bft)
11.03.2016 09:15 0,0 C 2,4 C 90 % 1019,1 hPa 0,0 mm 3,6 km/h (1 Bft) O-NO 67 0 min -1,4 C 0,0 km/h (0 Bft)
11.03.2016 09:20 0,0 C 3,1 C 89 % 1019,1 hPa 0,0 mm 3,9 km/h (1 Bft) O-NO 67 0 min -1,6 C 7,2 km/h (2 Bft)
11.03.2016 09:25 0,0 C 3,9 C 89 % 1019,1 hPa 0,0 mm 3,6 km/h (1 Bft) N-NO 22 0 min -1,6 C 3,3 km/h (1 Bft)
11.03.2016 09:30 0,0 C 4,3 C 88 % 1019,1 hPa 0,0 mm 3,0 km/h (1 Bft) O-SO 112 0 min -1,7 C 0,0 km/h (0 Bft)
11.03.2016 09:35 0,0 C 5,2 C 87 % 1019,1 hPa 0,0 mm 1,2 km/h (1 Bft) O 90 0 min -1,9 C 4,8 km/h (1 Bft)
11.03.2016 09:40 0,0 C 5,9 C 85 % 1019,1 hPa 0,0 mm 2,7 km/h (1 Bft) O-NO 67 5 min -2,2 C 5,4 km/h (1 Bft)
11.03.2016 09:45 0,0 C 5,9 C 83 % 1019,1 hPa 0,0 mm 3,6 km/h (1 Bft) NO 45 5 min -2,5 C 0,0 km/h (0 Bft)
11.03.2016 09:50 0,0 C 5,9 C 83 % 1019,4 hPa 0,0 mm 2,7 km/h (1 Bft) O-NO 67 0 min -2,5 C 0,0 km/h (0 Bft)
11.03.2016 09:55 0,0 C 6,5 C 81 % 1019,4 hPa 0,0 mm 1,2 km/h (1 Bft) O 90 0 min -2,9 C 0,0 km/h (0 Bft)
11.03.2016 10:00 0,0 C 7,7 C 81 % 1019,4 hPa 0,0 mm 0,6 km/h (0 Bft) NO 45 5 min -2,9 C 0,0 km/h (0 Bft)
11.03.2016 10:05 0,0 C 7,7 C 79 % 1019,4 hPa 0,0 mm 0,3 km/h (0 Bft) N-NO 22 5 min -3,2 C 3,0 km/h (1 Bft)
11.03.2016 10:10 0,0 C 7,1 C 78 % 1019,6 hPa 0,0 mm 1,5 km/h (1 Bft) NO 45 5 min -3,4 C 11,3 km/h (2 Bft)
11.03.2016 10:15 0,0 C 6,2 C 76 % 1019,6 hPa 0,0 mm 6,9 km/h (2 Bft) NO 45 5 min -3,7 C 14,9 km/h (3 Bft)
11.03.2016 10:20 0,0 C 4,5 C 76 % 1019,6 hPa 0,0 mm 9,8 km/h (2 Bft) O-NO 67 0 min -3,7 C 18,5 km/h (3 Bft)
11.03.2016 10:24 0,0 C 3,3 C 75 % 1019,6 hPa 0,0 mm 10,4 km/h (2 Bft) O-NO 67 0 min -3,9 C 10,7 km/h (2 Bft)
11.03.2016 10:25 0,0 C 3,3 C 75 % 1019,6 hPa 0,0 mm 10,4 km/h (2 Bft) O-NO 67 0 min -3,9 C 10,7 km/h (2 Bft)
11.03.2016 10:30 0,0 C 3,6 C 76 % 1019,9 hPa 0,0 mm 9,2 km/h (2 Bft) NO 45 0 min -3,7 C 8,3 km/h (2 Bft)
11.03.2016 10:35 0,0 C 3,7 C 76 % 1019,9 hPa 0,0 mm 7,2 km/h (2 Bft) NO 45 0 min -3,7 C 14,6 km/h (3 Bft)
11.03.2016 10:40 0,0 C 3,6 C 75 % 1019,9 hPa 0,0 mm 7,2 km/h (2 Bft) NO 45 0 min -3,9 C 9,8 km/h (2 Bft)
11.03.2016 10:45 0,0 C 3,3 C 76 % 1019,9 hPa 0,0 mm 7,2 km/h (2 Bft) N-NO 22 0 min -3,7 C 8,0 km/h (2 Bft)
11.03.2016 10:50 0,0 C 3,0 C 77 % 1019,9 hPa 0,0 mm 7,7 km/h (2 Bft) N-NO 22 0 min -3,5 C 14,0 km/h (3 Bft)
11.03.2016 10:55 0,0 C 4,1 C 75 % 1019,9 hPa 0,0 mm 10,1 km/h (2 Bft) NO 45 0 min -3,9 C 12,2 km/h (2 Bft)
11.03.2016 11:00 0,0 C 4,2 C 72 % 1019,9 hPa 0,0 mm 10,1 km/h (2 Bft) O-NO 67 0 min -4,4 C 17,9 km/h (3 Bft)
11.03.2016 11:05 0,0 C 4,6 C 70 % 1019,9 hPa 0,0 mm 10,1 km/h (2 Bft) O-NO 67 0 min -4,8 C 18,2 km/h (3 Bft)
11.03.2016 11:10 0,0 C 4,6 C 71 % 1020,0 hPa 0,0 mm 9,5 km/h (2 Bft) O 90 0 min -4,6 C 18,8 km/h (3 Bft)
11.03.2016 11:15 0,0 C 5,0 C 70 % 1020,0 hPa 0,0 mm 8,0 km/h (2 Bft) SO 135 0 min -4,8 C 11,3 km/h (2 Bft)
11.03.2016 11:20 0,0 C 5,8 C 68 % 1020,0 hPa 0,0 mm 7,2 km/h (2 Bft) NO 45 0 min -5,2 C 6,9 km/h (2 Bft)
11.03.2016 11:25 0,0 C 6,7 C 66 % 1020,0 hPa 0,0 mm 7,7 km/h (2 Bft) O-NO 67 0 min -5,6 C 11,9 km/h (2 Bft)
11.03.2016 11:30 0,0 C 5,7 C 67 % 1020,3 hPa 0,0 mm 9,5 km/h (2 Bft) O 90 0 min -5,4 C 14,9 km/h (3 Bft)
11.03.2016 11:35 0,0 C 5,1 C 67 % 1020,3 hPa 0,0 mm 10,7 km/h (2 Bft) O-SO 112 0 min -5,4 C 16,7 km/h (3 Bft)
11.03.2016 11:40 0,0 C 4,7 C 67 % 1020,3 hPa 0,0 mm 11,3 km/h (2 Bft) O-NO 67 0 min -5,4 C 22,1 km/h (4 Bft)
11.03.2016 11:45 0,0 C 5,1 C 66 % 1020,3 hPa 0,0 mm 12,2 km/h (2 Bft) O-NO 67 0 min -5,6 C 9,8 km/h (2 Bft)
11.03.2016 11:50 0,0 C 5,4 C 66 % 1020,6 hPa 0,0 mm 11,6 km/h (2 Bft) O-NO 67 0 min -5,6 C 14,9 km/h (3 Bft)
11.03.2016 11:55 0,0 C 5,8 C 66 % 1020,6 hPa 0,0 mm 7,7 km/h (2 Bft) N-NO 22 0 min -5,6 C 8,0 km/h (2 Bft)
11.03.2016 12:00 0,0 C 5,4 C 67 % 1020,6 hPa 0,0 mm 8,9 km/h (2 Bft) NO 45 0 min -5,4 C 15,2 km/h (3 Bft)
11.03.2016 12:05 0,0 C 5,0 C 66 % 1020,6 hPa 0,0 mm 11,6 km/h (2 Bft) NO 45 0 min -5,6 C 13,1 km/h (3 Bft)
11.03.2016 12:10 0,0 C 5,3 C 66 % 1020,6 hPa 0,0 mm 11,9 km/h (2 Bft) O-NO 67 0 min -5,6 C 15,2 km/h (3 Bft)
11.03.2016 12:15 0,0 C 6,6 C 60 % 1020,6 hPa 0,0 mm 11,0 km/h (2 Bft) O-NO 67 0 min -6,8 C 15,8 km/h (3 Bft)
11.03.2016 12:20 0,0 C 7,0 C 60 % 1020,6 hPa 0,0 mm 10,1 km/h (2 Bft) N-NO 22 0 min -6,8 C 23,2 km/h (4 Bft)
11.03.2016 12:25 0,0 C 7,7 C 59 % 1020,6 hPa 0,0 mm 9,5 km/h (2 Bft) O-NO 67 0 min -7,0 C 8,6 km/h (2 Bft)
11.03.2016 12:30 0,0 C 8,7 C 58 % 1021,0 hPa 0,0 mm 8,9 km/h (2 Bft) N-NO 22 0 min -7,3 C 10,1 km/h (2 Bft)
11.03.2016 12:35 0,0 C 9,9 C 59 % 1021,0 hPa 0,0 mm 7,5 km/h (2 Bft) O-NO 67 5 min -7,0 C 17,9 km/h (3 Bft)
11.03.2016 12:40 0,0 C 9,7 C 58 % 1021,0 hPa 0,0 mm 8,6 km/h (2 Bft) O 90 0 min -7,3 C 13,1 km/h (3 Bft)
11.03.2016 12:45 0,0 C 9,4 C 58 % 1021,0 hPa 0,0 mm 11,3 km/h (2 Bft) NO 45 0 min -7,3 C 13,7 km/h (3 Bft)
11.03.2016 12:50 0,0 C 9,1 C 58 % 1020,9 hPa 0,0 mm 10,7 km/h (2 Bft) N-NO 22 0 min -7,3 C 7,2 km/h (2 Bft)
11.03.2016 12:55 0,0 C 9,8 C 56 % 1020,9 hPa 0,0 mm 11,0 km/h (2 Bft) O 90 0 min -7,7 C 13,4 km/h (3 Bft)
11.03.2016 13:00 0,0 C 9,9 C 56 % 1020,9 hPa 0,0 mm 12,5 km/h (3 Bft) O-NO 67 0 min -7,7 C 20,6 km/h (4 Bft)
11.03.2016 13:05 0,0 C 10,3 C 55 % 1020,9 hPa 0,0 mm 13,7 km/h (3 Bft) O-NO 67 0 min -7,9 C 19,4 km/h (3 Bft)
11.03.2016 13:10 0,0 C 9,7 C 55 % 1021,1 hPa 0,0 mm 13,4 km/h (3 Bft) S-SO 157 0 min -7,9 C 29,8 km/h (5 Bft)
11.03.2016 13:15 0,0 C 10,8 C 54 % 1021,1 hPa 0,0 mm 11,9 km/h (2 Bft) NO 45 0 min -8,2 C 15,5 km/h (3 Bft)
11.03.2016 13:20 0,0 C 11,4 C 53 % 1021,1 hPa 0,0 mm 10,1 km/h (2 Bft) N-NW 337 5 min -8,4 C 17,0 km/h (3 Bft)
11.03.2016 13:24 0,0 C 10,4 C 53 % 1021,1 hPa 0,0 mm 12,2 km/h (2 Bft) O-SO 112 0 min -8,4 C 11,9 km/h (2 Bft)
11.03.2016 13:26 0,0 C 10,4 C 53 % 1021,1 hPa 0,0 mm 12,2 km/h (2 Bft) O-SO 112 0 min -8,4 C 11,9 km/h (2 Bft)
11.03.2016 13:30 0,0 C 10,2 C 52 % 1020,9 hPa 0,0 mm 13,7 km/h (3 Bft) O 90 0 min -8,7 C 15,5 km/h (3 Bft)
11.03.2016 13:35 0,0 C 12,2 C 49 % 1020,9 hPa 0,0 mm 12,5 km/h (3 Bft) O-NO 67 5 min -9,4 C 28,6 km/h (4 Bft)
11.03.2016 13:40 0,0 C 10,6 C 50 % 1020,9 hPa 0,0 mm 13,4 km/h (3 Bft) NO 45 5 min -9,2 C 18,8 km/h (3 Bft)
11.03.2016 13:45 0,0 C 8,0 C 54 % 1020,9 hPa 0,0 mm 13,4 km/h (3 Bft) O-NO 67 0 min -8,2 C 14,3 km/h (3 Bft)
11.03.2016 13:50 0,0 C 8,0 C 54 % 1020,6 hPa 0,0 mm 10,1 km/h (2 Bft) O-NO 67 0 min -8,2 C 12,8 km/h (3 Bft)
11.03.2016 13:55 0,0 C 7,8 C 54 % 1020,6 hPa 0,0 mm 11,6 km/h (2 Bft) O-NO 67 0 min -8,2 C 14,6 km/h (3 Bft)
11.03.2016 14:00 0,0 C 6,8 C 54 % 1020,6 hPa 0,0 mm 13,4 km/h (3 Bft) NO 45 0 min -8,2 C 12,5 km/h (3 Bft)
11.03.2016 14:05 0,0 C 6,2 C 57 % 1020,6 hPa 0,0 mm 11,6 km/h (2 Bft) O-NO 67 0 min -7,5 C 18,5 km/h (3 Bft)
11.03.2016 14:10 0,0 C 5,9 C 58 % 1020,5 hPa 0,0 mm 10,1 km/h (2 Bft) NO 45 0 min -7,3 C 10,7 km/h (2 Bft)
11.03.2016 14:15 0,0 C 5,8 C 58 % 1020,5 hPa 0,0 mm 9,2 km/h (2 Bft) O-NO 67 0 min -7,3 C 8,0 km/h (2 Bft)
11.03.2016 14:20 0,0 C 6,2 C 58 % 1020,5 hPa 0,0 mm 7,7 km/h (2 Bft) O-SO 112 0 min -7,3 C 15,8 km/h (3 Bft)
11.03.2016 14:25 0,0 C 6,3 C 57 % 1020,5 hPa 0,0 mm 8,6 km/h (2 Bft) NO 45 0 min -7,5 C 8,0 km/h (2 Bft)
11.03.2016 14:30 0,0 C 6,3 C 56 % 1019,9 hPa 0,0 mm 9,2 km/h (2 Bft) O-NO 67 0 min -7,7 C 9,2 km/h (2 Bft)
11.03.2016 14:35 0,0 C 6,1 C 56 % 1019,9 hPa 0,0 mm 12,2 km/h (2 Bft) O-NO 67 0 min -7,7 C 15,5 km/h (3 Bft)
11.03.2016 14:40 0,0 C 6,0 C 55 % 1019,9 hPa 0,0 mm 13,4 km/h (3 Bft) NO 45 0 min -7,9 C 34,9 km/h (5 Bft)
11.03.2016 14:45 0,0 C 6,0 C 55 % 1019,9 hPa 0,0 mm 13,4 km/h (3 Bft) O-NO 67 0 min -7,9 C 21,5 km/h (4 Bft)
11.03.2016 14:50 0,0 C 5,9 C 54 % 1019,9 hPa 0,0 mm 13,4 km/h (3 Bft) O-NO 67 0 min -8,2 C 17,9 km/h (3 Bft)
11.03.2016 14:55 0,0 C 5,9 C 55 % 1019,9 hPa 0,0 mm 11,6 km/h (2 Bft) O 90 0 min -7,9 C 9,8 km/h (2 Bft)
11.03.2016 15:00 0,0 C 6,1 C 54 % 1019,9 hPa 0,0 mm 10,4 km/h (2 Bft) O-NO 67 0 min -8,2 C 17,3 km/h (3 Bft)
11.03.2016 15:05 0,0 C 6,1 C 55 % 1019,9 hPa 0,0 mm 9,5 km/h (2 Bft) S-SO 157 0 min -7,9 C 11,3 km/h (2 Bft)
11.03.2016 15:10 0,0 C 5,6 C 55 % 1019,8 hPa 0,0 mm 10,1 km/h (2 Bft) W-NW 292 0 min -7,9 C 14,9 km/h (3 Bft)
11.03.2016 15:15 0,0 C 5,2 C 58 % 1019,8 hPa 0,0 mm 10,1 km/h (2 Bft) O 90 0 min -7,3 C 13,4 km/h (3 Bft)
11.03.2016 15:20 0,0 C 4,9 C 59 % 1019,8 hPa 0,0 mm 11,3 km/h (2 Bft) O-NO 67 0 min -7,0 C 36,7 km/h (5 Bft)
11.03.2016 15:25 0,0 C 4,4 C 60 % 1019,8 hPa 0,0 mm 13,4 km/h (3 Bft) N-NO 22 0 min -6,8 C 16,1 km/h (3 Bft)
11.03.2016 15:30 0,0 C 4,2 C 61 % 1019,7 hPa 0,0 mm 13,7 km/h (3 Bft) O-NO 67 0 min -6,6 C 36,7 km/h (5 Bft)
11.03.2016 15:35 0,0 C 4,0 C 62 % 1019,7 hPa 0,0 mm 12,5 km/h (3 Bft) O-NO 67 0 min -6,4 C 8,0 km/h (2 Bft)
11.03.2016 15:40 0,0 C 3,9 C 62 % 1019,7 hPa 0,0 mm 13,7 km/h (3 Bft) NO 45 0 min -6,4 C 21,8 km/h (4 Bft)
11.03.2016 15:45 0,0 C 4,1 C 63 % 1019,7 hPa 0,0 mm 14,3 km/h (3 Bft) O-NO 67 0 min -6,2 C 24,7 km/h (4 Bft)
11.03.2016 15:50 0,0 C 3,9 C 63 % 1019,5 hPa 0,0 mm 12,5 km/h (3 Bft) O-NO 67 0 min -6,2 C 8,3 km/h (2 Bft)
11.03.2016 15:55 4,2 C 4,1 C 66 % 1019,5 hPa 0,0 mm 8,6 km/h (2 Bft) O-NO 67 0 min -1,6 C 12,8 km/h (3 Bft)
11.03.2016 16:00 4,2 C 4,3 C 66 % 1019,5 hPa 0,0 mm 6,9 km/h (2 Bft) N-NO 22 0 min -1,6 C 10,4 km/h (2 Bft)
11.03.2016 16:05 4,2 C 4,2 C 66 % 1019,5 hPa 0,0 mm 8,0 km/h (2 Bft) NO 45 0 min -1,6 C 14,3 km/h (3 Bft)
11.03.2016 16:10 4,2 C 4,0 C 66 % 1019,4 hPa 0,0 mm 9,2 km/h (2 Bft) O-NO 67 0 min -1,6 C 6,9 km/h (2 Bft)
11.03.2016 16:15 4,2 C 3,8 C 66 % 1019,4 hPa 0,0 mm 11,0 km/h (2 Bft) NO 45 0 min -1,6 C 13,7 km/h (3 Bft)
11.03.2016 16:20 4,2 C 4,0 C 66 % 1019,4 hPa 0,0 mm 8,6 km/h (2 Bft) O-NO 67 0 min -1,6 C 14,0 km/h (3 Bft)
11.03.2016 16:25 4,0 C 4,0 C 66 % 1019,4 hPa 0,0 mm 6,6 km/h (2 Bft) O-NO 67 0 min -1,8 C 3,9 km/h (1 Bft)
11.03.2016 16:27 4,0 C 4,0 C 66 % 1019,4 hPa 0,0 mm 6,6 km/h (2 Bft) O-NO 67 0 min -1,8 C 3,9 km/h (1 Bft)
11.03.2016 16:30 4,0 C 4,2 C 66 % 1019,5 hPa 0,0 mm 5,7 km/h (1 Bft) S-SO 157 0 min -1,8 C 3,6 km/h (1 Bft)
11.03.2016 16:35 3,9 C 3,9 C 66 % 1019,5 hPa 0,0 mm 6,3 km/h (2 Bft) O 90 0 min -1,9 C 11,6 km/h (2 Bft)
11.03.2016 16:40 3,9 C 3,9 C 66 % 1019,5 hPa 0,0 mm 6,6 km/h (2 Bft) O 90 0 min -1,9 C 13,1 km/h (3 Bft)
11.03.2016 16:45 3,8 C 4,2 C 67 % 1019,5 hPa 0,0 mm 4,2 km/h (1 Bft) NW 315 0 min -1,8 C 3,9 km/h (1 Bft)
11.03.2016 16:50 3,8 C 4,1 C 67 % 1019,5 hPa 0,0 mm 3,9 km/h (1 Bft) O 90 0 min -1,8 C 14,6 km/h (3 Bft)
11.03.2016 16:55 3,7 C 4,0 C 67 % 1019,5 hPa 0,0 mm 3,9 km/h (1 Bft) N-NO 22 0 min -1,8 C 4,8 km/h (1 Bft)
11.03.2016 17:00 3,7 C 3,9 C 67 % 1019,5 hPa 0,0 mm 4,5 km/h (1 Bft) O-NO 67 0 min -1,8 C 9,5 km/h (2 Bft)
11.03.2016 17:05 3,7 C 3,8 C 67 % 1019,5 hPa 0,0 mm 5,1 km/h (1 Bft) O 90 0 min -1,8 C 9,8 km/h (2 Bft)
11.03.2016 17:10 3,5 C 3,5 C 68 % 1019,5 hPa 0,0 mm 6,0 km/h (2 Bft) NO 45 0 min -1,8 C 8,9 km/h (2 Bft)
11.03.2016 17:15 3,5 C 3,5 C 68 % 1019,5 hPa 0,0 mm 5,7 km/h (1 Bft) NO 45 0 min -1,8 C 16,4 km/h (3 Bft)
11.03.2016 17:20 3,5 C 3,3 C 68 % 1019,5 hPa 0,0 mm 7,2 km/h (2 Bft) NO 45 0 min -1,8 C 7,5 km/h (2 Bft)
11.03.2016 17:25 3,5 C 3,0 C 68 % 1019,5 hPa 0,0 mm 10,1 km/h (2 Bft) O-NO 67 0 min -1,8 C 8,9 km/h (2 Bft)
11.03.2016 17:30 3,4 C 3,0 C 68 % 1019,7 hPa 0,0 mm 9,2 km/h (2 Bft) O 90 0 min -1,9 C 6,9 km/h (2 Bft)
11.03.2016 17:35 3,4 C 3,1 C 69 % 1019,7 hPa 0,0 mm 7,5 km/h (2 Bft) O 90 0 min -1,7 C 16,1 km/h (3 Bft)
11.03.2016 17:40 3,4 C 3,0 C 69 % 1019,7 hPa 0,0 mm 9,2 km/h (2 Bft) N-NO 22 0 min -1,7 C 15,2 km/h (3 Bft)
11.03.2016 17:45 3,4 C 2,8 C 69 % 1019,7 hPa 0,0 mm 11,3 km/h (2 Bft) O 90 0 min -1,7 C 10,7 km/h (2 Bft)
11.03.2016 17:50 3,4 C 2,8 C 69 % 1019,6 hPa 0,0 mm 11,3 km/h (2 Bft) NO 45 0 min -1,7 C 12,8 km/h (3 Bft)
11.03.2016 17:55 3,2 C 2,8 C 69 % 1019,6 hPa 0,0 mm 9,5 km/h (2 Bft) O-NO 67 0 min -1,9 C 6,0 km/h (2 Bft)
11.03.2016 18:00 3,1 C 2,8 C 69 % 1019,6 hPa 0,0 mm 7,2 km/h (2 Bft) N 360 0 min -2,0 C 5,7 km/h (1 Bft)
11.03.2016 18:05 3,0 C 2,9 C 70 % 1019,6 hPa 0,0 mm 5,7 km/h (1 Bft) NO 45 0 min -1,9 C 8,6 km/h (2 Bft)
11.03.2016 18:10 3,0 C 2,9 C 70 % 1019,9 hPa 0,0 mm 5,7 km/h (1 Bft) O-NO 67 0 min -1,9 C 0,0 km/h (0 Bft)
11.03.2016 18:15 2,7 C 2,7 C 71 % 1019,9 hPa 0,0 mm 4,5 km/h (1 Bft) O-NO 67 0 min -2,0 C 0,0 km/h (0 Bft)
11.03.2016 18:20 2,7 C 2,7 C 71 % 1019,9 hPa 0,0 mm 2,4 km/h (1 Bft) NO 45 0 min -2,0 C 0,0 km/h (0 Bft)
11.03.2016 18:25 2,6 C 2,6 C 71 % 1019,9 hPa 0,0 mm 0,6 km/h (0 Bft) O-NO 67 0 min -2,1 C 3,3 km/h (1 Bft)
11.03.2016 18:30 2,6 C 2,5 C 72 % 1019,9 hPa 0,0 mm 0,0 km/h (0 Bft) O-NO 67 0 min -1,9 C 0,0 km/h (0 Bft)
11.03.2016 18:35 2,5 C 2,4 C 72 % 1019,9 hPa 0,0 mm 0,0 km/h (0 Bft) SO 135 0 min -2,0 C 0,0 km/h (0 Bft)
11.03.2016 18:40 2,5 C 2,4 C 72 % 1019,9 hPa 0,0 mm 0,0 km/h (0 Bft) O-SO 112 0 min -2,0 C 3,9 km/h (1 Bft)
11.03.2016 18:45 2,5 C 2,4 C 72 % 1019,9 hPa 0,0 mm 1,5 km/h (1 Bft) O-NO 67 0 min -2,0 C 7,7 km/h (2 Bft)
11.03.2016 18:50 2,5 C 2,4 C 73 % 1020,2 hPa 0,0 mm 3,3 km/h (1 Bft) O-NO 67 0 min -1,8 C 10,4 km/h (2 Bft)
11.03.2016 18:55 2,7 C 2,5 C 73 % 1020,2 hPa 0,0 mm 5,4 km/h (1 Bft) NO 45 0 min -1,6 C 7,7 km/h (2 Bft)
11.03.2016 19:00 2,6 C 2,5 C 73 % 1020,2 hPa 0,0 mm 5,4 km/h (1 Bft) O-NO 67 0 min -1,7 C 5,7 km/h (1 Bft)
11.03.2016 19:05 2,6 C 2,5 C 73 % 1020,2 hPa 0,0 mm 4,5 km/h (1 Bft) O-NO 67 0 min -1,7 C 7,7 km/h (2 Bft)
11.03.2016 19:10 2,5 C 2,4 C 73 % 1020,4 hPa 0,0 mm 3,9 km/h (1 Bft) O-SO 112 0 min -1,8 C 0,0 km/h (0 Bft)
11.03.2016 19:15 2,3 C 2,3 C 73 % 1020,4 hPa 0,0 mm 1,5 km/h (1 Bft) O-NO 67 0 min -2,0 C 0,0 km/h (0 Bft)
11.03.2016 19:20 2,4 C 2,3 C 74 % 1020,4 hPa 0,0 mm 1,2 km/h (1 Bft) N-NO 22 0 min -1,7 C 0,0 km/h (0 Bft)
11.03.2016 19:25 2,4 C 2,3 C 74 % 1020,4 hPa 0,0 mm 3,3 km/h (1 Bft) N-NO 22 0 min -1,7 C 5,1 km/h (1 Bft)
11.03.2016 19:28 0,0 C 2,3 C 74 % 1020,4 hPa 0,0 mm 3,3 km/h (1 Bft) N-NO 22 0 min -4,1 C 5,1 km/h (1 Bft)
11.03.2016 19:30 0,0 C 2,2 C 74 % 1020,4 hPa 0,0 mm 2,7 km/h (1 Bft) O 90 0 min -4,1 C 8,9 km/h (2 Bft)
11.03.2016 19:35 0,0 C 2,3 C 75 % 1020,4 hPa 0,0 mm 2,4 km/h (1 Bft) NO 45 0 min -3,9 C 3,9 km/h (1 Bft)
11.03.2016 19:40 0,0 C 2,2 C 74 % 1020,4 hPa 0,0 mm 2,1 km/h (1 Bft) O-SO 112 0 min -4,1 C 6,3 km/h (2 Bft)
11.03.2016 19:45 0,0 C 2,2 C 75 % 1020,4 hPa 0,0 mm 2,4 km/h (1 Bft) N-NO 22 0 min -3,9 C 3,3 km/h (1 Bft)
11.03.2016 19:50 0,0 C 2,1 C 75 % 1020,5 hPa 0,0 mm 2,4 km/h (1 Bft) N-NO 22 0 min -3,9 C 0,0 km/h (0 Bft)
11.03.2016 19:55 0,0 C 2,0 C 75 % 1020,5 hPa 0,0 mm 1,2 km/h (1 Bft) N-NO 22 0 min -3,9 C 10,1 km/h (2 Bft)
11.03.2016 20:00 0,0 C 2,0 C 75 % 1020,5 hPa 0,0 mm 1,2 km/h (1 Bft) O-SO 112 0 min -3,9 C 0,0 km/h (0 Bft)
11.03.2016 20:05 0,0 C 2,1 C 75 % 1020,5 hPa 0,0 mm 0,6 km/h (0 Bft) SO 135 0 min -3,9 C 0,0 km/h (0 Bft)
11.03.2016 20:10 0,0 C 2,0 C 75 % 1020,6 hPa 0,0 mm 0,0 km/h (0 Bft) SW 225 0 min -3,9 C 0,0 km/h (0 Bft)
11.03.2016 20:15 0,0 C 1,9 C 75 % 1020,6 hPa 0,0 mm 0,0 km/h (0 Bft) O-SO 112 0 min -3,9 C 0,0 km/h (0 Bft)
11.03.2016 20:20 0,0 C 1,9 C 75 % 1020,6 hPa 0,0 mm 0,0 km/h (0 Bft) O-SO 112 0 min -3,9 C 0,0 km/h (0 Bft)
11.03.2016 20:25 0,0 C 1,9 C 75 % 1020,6 hPa 0,0 mm 0,0 km/h (0 Bft) SO 135 0 min -3,9 C 0,0 km/h (0 Bft)
11.03.2016 20:30 0,0 C 1,9 C 75 % 1020,7 hPa 0,0 mm 0,0 km/h (0 Bft) O-NO 67 0 min -3,9 C 0,0 km/h (0 Bft)
11.03.2016 20:35 0,0 C 2,0 C 76 % 1020,7 hPa 0,0 mm 0,9 km/h (0 Bft) O-SO 112 0 min -3,7 C 0,0 km/h (0 Bft)
11.03.2016 20:40 0,0 C 1,8 C 75 % 1020,7 hPa 0,0 mm 0,9 km/h (0 Bft) SO 135 0 min -3,9 C 0,0 km/h (0 Bft)
11.03.2016 20:45 0,0 C 1,7 C 75 % 1020,7 hPa 0,0 mm 0,0 km/h (0 Bft) W-NW 292 0 min -3,9 C 0,0 km/h (0 Bft)
11.03.2016 20:50 0,0 C 1,8 C 76 % 1020,8 hPa 0,0 mm 0,0 km/h (0 Bft) O 90 0 min -3,7 C 0,0 km/h (0 Bft)
11.03.2016 20:55 0,0 C 1,8 C 76 % 1020,8 hPa 0,0 mm 0,0 km/h (0 Bft) O-NO 67 0 min -3,7 C 0,0 km/h (0 Bft)
11.03.2016 21:00 0,0 C 1,6 C 76 % 1020,8 hPa 0,0 mm 0,0 km/h (0 Bft) NO 45 0 min -3,7 C 4,2 km/h (1 Bft)
11.03.2016 21:05 0,0 C 1,7 C 76 % 1020,8 hPa 0,0 mm 0,3 km/h (0 Bft) O-NO 67 0 min -3,7 C 0,0 km/h (0 Bft)
11.03.2016 21:10 0,0 C 1,6 C 76 % 1020,8 hPa 0,0 mm 0,3 km/h (0 Bft) O-NO 67 0 min -3,7 C 0,0 km/h (0 Bft)
11.03.2016 21:15 0,0 C 1,7 C 76 % 1020,8 hPa 0,0 mm 0,0 km/h (0 Bft) O 90 0 min -3,7 C 0,0 km/h (0 Bft)
11.03.2016 21:20 0,0 C 1,7 C 76 % 1020,8 hPa 0,0 mm 0,0 km/h (0 Bft) O 90 0 min -3,7 C 0,0 km/h (0 Bft)
11.03.2016 21:25 0,0 C 1,7 C 76 % 1020,8 hPa 0,0 mm 0,3 km/h (0 Bft) O-NO 67 0 min -3,7 C 0,0 km/h (0 Bft)
11.03.2016 21:30 0,0 C 1,8 C 76 % 1020,8 hPa 0,0 mm 0,0 km/h (0 Bft) O-NO 67 0 min -3,7 C 0,0 km/h (0 Bft)
11.03.2016 21:35 0,0 C 1,7 C 76 % 1020,8 hPa 0,0 mm 0,0 km/h (0 Bft) N 360 0 min -3,7 C 0,0 km/h (0 Bft)
11.03.2016 21:40 0,0 C 1,6 C 77 % 1020,8 hPa 0,0 mm 0,0 km/h (0 Bft) NO 45 0 min -3,5 C 3,6 km/h (1 Bft)
11.03.2016 21:45 0,0 C 1,6 C 77 % 1020,8 hPa 0,0 mm 0,3 km/h (0 Bft) O 90 0 min -3,5 C 0,0 km/h (0 Bft)
11.03.2016 21:50 0,0 C 1,5 C 77 % 1020,8 hPa 0,0 mm 0,0 km/h (0 Bft) O-NO 67 0 min -3,5 C 0,0 km/h (0 Bft)
11.03.2016 21:55 0,0 C 1,5 C 77 % 1020,8 hPa 0,0 mm 0,0 km/h (0 Bft) O-SO 112 0 min -3,5 C 0,0 km/h (0 Bft)
11.03.2016 22:00 0,0 C 1,6 C 77 % 1020,8 hPa 0,0 mm 0,0 km/h (0 Bft) NO 45 0 min -3,5 C 0,0 km/h (0 Bft)
11.03.2016 22:05 0,0 C 1,6 C 77 % 1020,8 hPa 0,0 mm 0,3 km/h (0 Bft) O-NO 67 0 min -3,5 C 0,0 km/h (0 Bft)
11.03.2016 22:10 0,0 C 1,6 C 77 % 1020,9 hPa 0,0 mm 0,3 km/h (0 Bft) SO 135 0 min -3,5 C 0,0 km/h (0 Bft)
11.03.2016 22:15 0,0 C 1,5 C 77 % 1020,9 hPa 0,0 mm 0,0 km/h (0 Bft) S 180 0 min -3,5 C 0,0 km/h (0 Bft)
11.03.2016 22:20 0,0 C 1,5 C 77 % 1020,9 hPa 0,0 mm 0,0 km/h (0 Bft) O-NO 67 0 min -3,5 C 0,0 km/h (0 Bft)
11.03.2016 22:25 0,0 C 1,5 C 77 % 1020,9 hPa 0,0 mm 0,0 km/h (0 Bft) N-NO 22 0 min -3,5 C 0,0 km/h (0 Bft)
11.03.2016 22:29 0,0 C 1,5 C 77 % 1020,9 hPa 0,0 mm 0,0 km/h (0 Bft) N-NO 22 0 min -3,5 C 0,0 km/h (0 Bft)
11.03.2016 22:30 0,0 C 1,5 C 77 % 1020,9 hPa 0,0 mm 0,0 km/h (0 Bft) SO 135 0 min -3,5 C 0,0 km/h (0 Bft)
11.03.2016 22:35 0,0 C 1,6 C 77 % 1020,9 hPa 0,0 mm 0,0 km/h (0 Bft) O-NO 67 0 min -3,5 C 0,0 km/h (0 Bft)
11.03.2016 22:40 0,0 C 1,6 C 78 % 1020,9 hPa 0,0 mm 0,3 km/h (0 Bft) O 90 0 min -3,4 C 0,0 km/h (0 Bft)
11.03.2016 22:45 0,0 C 1,5 C 78 % 1020,9 hPa 0,0 mm 0,3 km/h (0 Bft) O-NO 67 0 min -3,4 C 0,0 km/h (0 Bft)
11.03.2016 22:50 0,0 C 1,5 C 78 % 1020,6 hPa 0,0 mm 0,0 km/h (0 Bft) O-SO 112 0 min -3,4 C 0,0 km/h (0 Bft)
11.03.2016 22:55 0,0 C 1,5 C 78 % 1020,6 hPa 0,0 mm 0,3 km/h (0 Bft) O-NO 67 0 min -3,4 C 4,8 km/h (1 Bft)
11.03.2016 23:00 0,0 C 1,5 C 78 % 1020,6 hPa 0,0 mm 1,5 km/h (1 Bft) O-NO 67 0 min -3,4 C 3,9 km/h (1 Bft)
11.03.2016 23:05 0,0 C 1,4 C 78 % 1020,6 hPa 0,0 mm 2,4 km/h (1 Bft) O-SO 112 0 min -3,4 C 0,0 km/h (0 Bft)
11.03.2016 23:10 0,0 C 1,4 C 79 % 1020,8 hPa 0,0 mm 2,1 km/h (1 Bft) NO 45 0 min -3,2 C 8,3 km/h (2 Bft)
11.03.2016 23:15 0,0 C 1,4 C 79 % 1020,8 hPa 0,0 mm 1,5 km/h (1 Bft) O 90 0 min -3,2 C 0,0 km/h (0 Bft)
11.03.2016 23:20 0,0 C 1,3 C 78 % 1020,8 hPa 0,0 mm 0,9 km/h (0 Bft) O-NO 67 0 min -3,4 C 0,0 km/h (0 Bft)
11.03.2016 23:25 0,0 C 1,3 C 79 % 1020,8 hPa 0,0 mm 0,0 km/h (0 Bft) O-SO 112 0 min -3,2 C 0,0 km/h (0 Bft)
11.03.2016 23:30 0,0 C 1,3 C 79 % 1020,6 hPa 0,0 mm 0,3 km/h (0 Bft) O-NO 67 0 min -3,2 C 3,6 km/h (1 Bft)
11.03.2016 23:35 0,0 C 1,3 C 79 % 1020,6 hPa 0,0 mm 0,3 km/h (0 Bft) O-NO 67 0 min -3,2 C 3,9 km/h (1 Bft)
11.03.2016 23:40 0,0 C 1,2 C 79 % 1020,6 hPa 0,0 mm 0,3 km/h (0 Bft) NO 45 0 min -3,2 C 0,0 km/h (0 Bft)
11.03.2016 23:45 0,0 C 1,3 C 79 % 1020,6 hPa 0,0 mm 1,8 km/h (1 Bft) NO 45 0 min -3,2 C 0,0 km/h (0 Bft)
11.03.2016 23:50 0,0 C 1,3 C 79 % 1020,8 hPa 0,0 mm 1,8 km/h (1 Bft) N-NO 22 0 min -3,2 C 0,0 km/h (0 Bft)
11.03.2016 23:55 0,0 C 1,3 C 79 % 1020,8 hPa 0,0 mm 0,3 km/h (0 Bft) SW 225 0 min -3,2 C 0,0 km/h (0 Bft)
_ Min-Zeit 06:45 06:45 13:35 00:25 - 23:25 - - - 13:35 23:55
Minimum _ -3,3 C -3,6 C 49 % 1017,1 hPa - 0,0 km/h (0 Bft) - - - -9,4 C 0,0 km/h (0 Bft)
_ Max-Zeit 16:20 13:35 09:05 13:26 23:55 15:45 - - 13:40 09:05 15:30
Maximum _ 4,2 C 12,2 C 92 % 1021,1 hPa 0,0 mm 14,3 km/h
O-NO (3 Bft)
- - 5 min -1,1 C 36,7 km/h
O-NO (5 Bft)
Durchschnitt _ 0,0 C 2,0 C 77 % 1019,3 hPa #0,0 mm 4,0 km/h (1 Bft) O-NO - #50 min. -3,7 C 5,8 km/h (2 Bft)